Wetbulb
40.28 39.48 39.31 39.23 39.48 39.92 40.00 40.14 40.62 41.08 41.96 42.89 44.32 44.57 45.87 48.51 50.01 51.40 52.65 53.53 55.04 57.47
37.60 36.38 36.27 37.30 37.65 37.49 38.06 39.43 38.76 39.25 39.53 40.58 41.67 42.54 42.75 44.09 44.89 46.00 45.67 46.05 45.15 46.07
35.00 34.78 34.97 35.40 34.66 34.90 35.78 36.30 36.77 36.90 37.76 38.58 39.54 40.13 40.83 42.19 41.15 41.18 41.99 42.20 41.75 42.48
32.78 32.95 33.30 32.89 32.83 33.03 33.71 34.30 34.59 35.14 35.91 36.66 37.23 38.34 38.24 37.98 38.07 37.67 38.04 38.91 38.74 39.14
31.14 30.84 30.44 30.36 30.81 31.66 31.26 32.56 32.72 33.54 34.28 34.79 35.48 35.79 35.05 34.61 35.31 35.26 35.38 36.19 36.89 37.11
28.75 28.35 28.23 28.61 29.13 29.71 29.65 30.05 30.86 31.72 31.98 32.58 33.89 32.88 33.28 33.24 32.86 33.03 34.06 35.10 35.78 35.66
26.81 26.91 26.96 27.46 27.62 28.08 28.47 28.44 29.15 30.33 30.97 31.64 32.63 31.72 31.20 30.69 30.11 30.96 32.94 34.62 34.42 33.87
26.15 26.24 26.23 25.77 26.17 26.90 27.24 27.67 28.60 29.02 29.47 30.26 31.29 30.88 29.61 28.91 28.26 30.02 30.30 31.00 31.14 31.34
24.53 24.91 24.88 24.78 25.05 25.27 25.60 26.42 27.32 27.18 27.75 27.85 29.99 30.87 30.49 29.15 27.92 28.37 27.70 27.24 28.13 28.65
23.51 23.50 23.56 23.98 23.95 24.05 23.87 24.82 24.94 25.37 26.00 26.22 27.33 29.70 29.49 28.79 26.76 26.35 26.49 26.00 26.09 26.34
22.36 22.13 22.77 22.91 22.59 22.45 22.98 23.22 23.62 23.92 24.67 25.14 26.15 28.25 28.34 27.45 25.76 24.97 25.11 25.00 24.97 24.82
21.17 20.88 21.51 21.63 21.26 21.69 21.88 22.36 22.55 23.69 23.61 23.66 24.37 26.65 27.02 25.45 23.61 23.03 22.55 23.64 23.94 23.82
19.81 19.45 19.87 19.88 20.16 21.58 21.51 22.04 22.50 22.88 23.31 23.87 23.13 24.24 25.31 24.46 21.65 20.21 19.94 20.95 22.20 23.23
17.35 17.41 18.99 18.57 19.14 20.03 19.87 20.37 21.04 21.23 21.85 22.53 21.50 20.33 23.59 23.64 20.69 19.54 18.77 18.68 19.00 18.83
MSLP
1021.51 1021.53 1021.53 1021.54 1021.47 1021.41 1021.23 1021.02 1020.87 1020.62 1020.32 1019.97 1019.60 1019.30 1018.98 1018.69 1018.46 1018.18 1017.80 1017.64 1017.34 1016.75
1022.01 1022.03 1022.09 1022.03 1022.12 1022.12 1021.93 1021.56 1021.46 1021.27 1021.00 1020.63 1020.31 1020.02 1019.76 1019.46 1019.17 1019.01 1018.79 1018.61 1018.53 1018.23
1022.61 1022.55 1022.61 1022.65 1022.62 1022.65 1022.49 1022.24 1021.94 1021.75 1021.48 1021.17 1020.86 1020.67 1020.41 1020.14 1020.08 1019.81 1019.67 1019.46 1019.17 1018.80
1023.09 1023.21 1023.20 1023.31 1023.33 1023.19 1023.01 1022.77 1022.50 1022.25 1021.97 1021.70 1021.40 1021.02 1021.07 1020.98 1020.87 1020.72 1020.52 1020.19 1019.90 1019.58
1023.36 1023.60 1023.74 1023.80 1023.81 1023.66 1023.45 1023.23 1023.03 1022.74 1022.51 1022.25 1021.86 1021.85 1021.77 1021.69 1021.58 1021.30 1021.02 1020.77 1020.44 1020.05
1023.71 1023.93 1024.17 1024.25 1024.26 1024.06 1023.88 1023.67 1023.49 1023.21 1022.95 1022.67 1022.29 1022.39 1022.43 1022.24 1022.06 1021.86 1021.57 1021.23 1020.83 1020.37
1024.04 1024.22 1024.42 1024.57 1024.58 1024.38 1024.16 1023.93 1023.72 1023.39 1023.13 1022.93 1022.66 1022.86 1022.93 1022.79 1022.56 1022.21 1021.76 1021.40 1021.07 1020.79
1024.24 1024.48 1024.76 1024.89 1024.81 1024.69 1024.45 1024.32 1024.09 1023.85 1023.59 1023.26 1023.00 1023.24 1023.26 1023.17 1022.81 1022.28 1022.00 1021.79 1021.48 1021.23
1024.40 1024.56 1024.73 1024.84 1024.89 1024.83 1024.78 1024.64 1024.49 1024.35 1024.14 1023.97 1023.72 1023.85 1023.70 1023.45 1023.01 1022.65 1022.38 1022.04 1021.74 1021.61
1024.35 1024.57 1024.80 1024.85 1024.94 1024.97 1024.95 1024.84 1024.75 1024.68 1024.47 1024.37 1024.16 1024.12 1023.96 1023.58 1023.32 1023.07 1022.78 1022.46 1022.20 1021.76
1024.58 1024.78 1024.92 1024.93 1025.05 1025.15 1025.12 1025.08 1024.99 1024.85 1024.85 1024.76 1024.39 1024.16 1024.02 1023.90 1023.58 1023.30 1023.09 1022.77 1022.37 1022.20
1024.85 1024.87 1024.99 1025.00 1025.27 1025.42 1025.21 1025.20 1025.27 1025.07 1024.91 1025.03 1024.86 1024.63 1024.31 1024.03 1023.56 1023.33 1023.28 1022.66 1022.38 1022.13
1024.93 1025.03 1025.38 1025.30 1025.24 1025.39 1025.37 1025.29 1025.36 1024.97 1024.99 1024.82 1025.01 1024.50 1024.34 1023.80 1023.83 1023.70 1023.52 1023.09 1022.54 1022.21
1025.36 1025.36 1025.25 1025.35 1025.49 1025.40 1025.17 1025.33 1025.25 1025.41 1025.23 1025.06 1025.04 1024.45 1024.50 1024.45 1024.08 1023.80 1023.36 1022.96 1022.58 1022.34
Wind_Speed
7 5 5 6 6 5 5 5 8 9 9 9 9 9 9 6 7 8 6 10 10 7
6 7 6 6 6 6 6 8 9 9 9 9 9 9 10 6 8 9 9 8 10 8
6 6 6 6 7 8 7 8 8 9 9 9 9 9 8 7 11 10 8 8 10 9
6 6 6 6 7 7 7 8 9 9 9 9 10 9 11 11 11 11 10 9 10 11
6 6 6 6 7 7 7 7 8 8 8 9 9 11 12 11 11 11 11 10 10 10
6 5 5 6 6 6 6 6 7 7 8 9 8 11 11 11 11 11 10 9 9 10
5 5 5 5 4 5 5 5 5 5 6 6 6 10 11 11 10 9 8 8 10 11
5 5 5 4 5 5 5 5 5 5 6 6 7 8 10 9 9 8 8 8 9 10
4 5 5 4 5 5 5 5 5 6 6 7 6 15 17 15 8 9 9 9 10 11
4 5 4 4 4 4 5 5 5 5 6 5 5 15 17 18 7 8 9 10 10 10
4 4 3 4 4 5 4 5 4 5 5 5 6 14 16 18 8 8 9 10 10 10
3 4 3 4 4 4 4 4 3 4 4 5 5 15 17 15 9 9 11 11 11 11
4 4 2 3 3 3 3 4 4 5 4 5 4 13 16 14 7 9 8 9 10 15
3 1 2 4 3 3 4 4 4 6 5 5 5 8 15 17 9 8 9 9 8 9
Wind_Direction
38 27 29 25 13 14 17 2 10 360 358 354 358 358 358 354 353 353 355 2 1 316
41 32 23 25 22 16 7 3 2 359 356 354 356 1 356 359 357 11 13 11 359 351
46 33 26 29 26 16 6 4 3 1 358 0 2 5 354 359 18 8 9 8 359 356
46 32 33 34 22 15 8 5 8 5 2 5 5 1 26 15 14 10 4 3 1 353
50 37 38 33 21 14 10 11 8 6 9 10 2 33 21 12 5 2 359 357 355 350
53 47 42 32 21 16 10 15 9 9 11 9 10 33 16 12 2 358 353 349 352 354
64 53 46 37 19 17 5 16 3 0 7 3 32 32 15 6 355 340 347 357 4 2
75 66 55 34 20 14 16 4 352 2 8 359 49 25 15 3 345 358 3 3 3 359
74 68 54 30 19 20 11 1 5 13 6 9 22 19 12 7 351 8 3 358 356 350
77 74 51 32 30 20 11 2 12 12 6 13 350 16 10 7 6 2 358 358 350 346
82 77 47 46 33 20 3 359 9 8 351 5 0 9 5 6 360 357 358 349 346 342
75 73 39 54 24 13 357 348 354 349 344 357 354 3 358 4 1 353 349 342 342 340
86 74 32 44 23 357 346 344 340 340 348 339 8 6 352 5 353 348 339 338 334 339
68 37 72 46 2 352 347 350 334 338 352 348 30 12 349 0 344 343 341 332 336 335